GFSFLT1_700_rhum_306.txt.gz
RH
19 25 32 37 37 40 39 31 17 17 16 14 15 16 14 12 10 6 4 4 8 10 9 8 9 7 5 5 5 6 7 8
20 27 35 39 40 42 44 39 20 18 16 14 16 16 14 11 8 5 3 6 10 11 9 12 11 9 6 6 7 11 17 23
22 30 36 38 40 42 47 47 25 18 16 15 17 16 14 10 6 4 5 9 12 12 12 15 14 13 16 18 20 23 31 37
24 32 36 38 41 43 48 52 23 19 16 16 18 16 12 8 5 3 7 11 12 12 16 20 20 25 32 39 48 55 59 70
22 31 38 38 40 45 51 51 21 18 15 16 18 15 11 8 4 4 9 12 13 13 19 24 26 32 44 54 66 75 83 85
29 34 36 37 42 47 54 40 21 18 16 18 18 14 10 6 4 5 10 13 13 14 22 28 33 42 56 65 78 88 96 91
30 33 34 37 44 48 56 25 20 18 16 19 17 13 9 5 3 5 10 13 13 15 26 34 46 59 65 75 87 99 99 96
28 30 33 42 45 53 46 21 19 17 17 20 16 12 8 5 3 4 10 14 13 14 28 39 52 63 74 90 97 98 97 96
28 30 36 43 46 55 27 22 19 16 18 20 15 11 8 5 4 5 11 16 13 14 32 44 54 67 86 98 97 97 97 95
28 31 38 42 53 42 24 21 18 17 20 19 15 11 8 5 4 5 10 17 13 13 30 44 55 71 94 97 98 95 94 96
29 32 38 47 51 29 23 20 18 18 21 18 14 12 8 5 4 4 9 17 14 11 26 44 55 72 96 96 94 98 96 96
30 34 43 52 37 24 20 19 18 19 22 17 15 12 9 5 4 4 8 18 18 11 20 42 54 71 95 92 91 99 96 97
34 40 48 45 27 20 20 19 18 20 21 17 15 12 9 5 4 4 8 16 20 11 14 34 52 69 93 85 91 98 96 96
38 45 47 32 21 20 20 19 19 21 21 18 16 13 10 6 4 3 6 14 20 13 10 23 48 64 90 91 95 96 96 96
44 43 36 23 19 20 20 19 20 22 21 18 16 14 11 7 4 3 5 9 19 19 11 13 37 59 84 93 96 96 97 96
35 33 24 20 19 20 20 20 21 22 22 19 18 16 12 8 5 3 4 5 13 20 16 10 22 49 72 94 96 96 96 96
26 24 21 18 19 21 20 21 22 22 22 20 18 17 13 9 5 4 3 3 6 14 19 14 11 36 61 91 96 95 96 97
20 21 18 17 19 22 20 22 22 22 23 20 19 18 15 11 6 5 4 3 3 5 12 20 14 15 46 71 96 97 96 96
18 16 15 16 20 21 20 23 23 22 23 21 19 19 17 13 8 6 5 4 4 3 4 11 20 13 18 52 78 98 96 96

GFSFLT1_700_rhum_309.txt.gz
RH
22 24 29 32 36 42 46 49 51 25 19 16 15 17 15 14 12 9 6 3 4 6 9 8 9 12 13 13 12 15 14 10
21 26 30 36 42 47 49 52 55 25 20 16 16 18 15 14 11 7 4 3 6 9 10 10 16 18 20 24 26 32 35 30
21 28 33 38 44 49 52 56 56 24 19 16 18 17 14 12 8 5 3 4 8 11 12 15 20 23 28 35 39 45 59 57
22 30 34 40 45 50 54 59 49 23 18 16 19 16 14 11 7 4 3 6 11 12 14 21 27 32 39 44 53 63 66 74
24 28 35 40 45 50 55 62 34 21 17 18 19 15 13 10 6 4 4 10 13 13 16 27 35 43 52 58 70 80 82 78
25 32 35 38 44 52 58 60 25 20 17 20 18 15 12 8 5 4 6 13 13 12 20 33 42 52 62 74 86 89 86 86
28 32 34 37 45 54 64 46 23 19 18 20 17 15 11 6 4 3 7 13 14 12 24 38 49 61 77 89 91 87 94 97
29 31 33 37 48 57 62 27 21 17 19 20 16 14 9 6 4 3 6 13 14 12 23 39 53 70 95 96 92 97 98 99
28 30 34 41 52 61 45 24 20 18 20 19 16 12 8 6 4 4 8 16 14 11 23 43 60 86 97 96 98 98 100 96
28 30 36 46 54 59 26 22 18 19 20 18 15 12 8 5 3 4 10 17 15 10 21 45 66 95 95 94 96 100 97 96
28 30 39 50 60 36 22 21 18 20 21 17 15 12 7 5 3 4 10 18 15 10 20 48 71 96 89 94 95 96 96 96
29 32 43 57 48 23 22 20 19 21 21 17 15 11 7 5 3 4 9 18 16 10 17 48 75 94 88 95 96 96 96 96
30 38 52 56 28 22 21 19 20 22 20 17 15 12 7 5 3 4 8 17 17 11 13 47 74 95 94 95 97 96 96 96
35 47 56 36 22 21 20 20 21 22 20 18 16 12 8 5 3 3 5 14 18 15 12 42 71 94 95 96 97 96 96 96
44 51 42 25 20 21 20 21 22 23 20 18 16 13 9 5 4 3 3 6 16 18 12 33 76 95 96 96 96 96 98 100
47 44 29 18 20 21 20 22 22 23 20 19 17 14 9 6 5 4 3 4 7 18 14 22 70 95 93 96 97 97 96 96
38 33 20 18 21 21 21 22 23 23 21 19 18 16 10 6 6 4 4 3 4 11 17 15 56 94 96 96 96 96 98 98
32 22 16 19 22 21 23 23 23 23 22 20 19 17 12 8 6 6 4 3 3 4 15 15 41 82 97 96 97 98 100 98
19 16 15 19 22 21 24 23 23 23 22 21 20 18 15 10 7 7 6 4 3 3 6 16 20 58 93 97 96 96 99 100

GFSFLT1_700_rhum_312.txt.gz
RH
17 22 25 30 37 43 44 48 55 47 22 18 16 17 17 14 13 10 8 5 4 4 6 7 8 8 9 10 11 15 17 16
14 21 28 32 40 43 47 51 58 45 24 18 17 19 16 14 11 8 6 4 4 6 8 9 10 11 15 17 20 23 29 32
17 22 29 34 40 44 49 54 60 38 22 17 18 19 15 12 10 7 4 4 4 7 10 11 12 18 24 29 37 44 54 61
20 24 31 36 40 45 50 55 63 33 21 17 20 17 13 11 7 5 4 4 6 10 11 12 18 26 34 46 57 70 75 80
22 25 31 35 38 43 50 58 61 29 19 18 20 15 13 10 7 4 3 5 10 12 11 15 27 38 49 63 79 84 87 89
24 27 33 34 38 42 51 62 46 24 17 21 18 14 12 8 5 4 4 8 12 13 12 21 37 49 66 87 90 96 99 97
24 29 32 34 38 43 53 64 34 20 18 21 16 14 11 7 4 3 4 10 14 12 13 29 46 63 89 96 98 98 98 96
25 30 32 35 38 46 60 54 26 18 21 19 16 14 10 6 4 3 5 11 15 10 14 35 56 83 99 96 98 97 97 96
27 30 32 35 40 52 65 33 21 19 22 18 16 13 8 5 3 4 7 14 15 10 16 45 69 92 95 98 98 97 96 96
27 30 32 36 47 63 45 25 18 21 21 17 15 11 7 4 3 4 8 17 15 11 22 53 79 96 98 97 96 96 96 96
28 30 34 42 57 55 29 21 19 22 20 17 15 10 6 4 3 3 9 18 16 11 25 60 94 97 97 96 95 96 96 97
28 30 38 53 59 33 23 19 21 22 19 17 14 8 6 4 3 3 8 18 17 12 33 79 99 96 96 95 96 96 96 96
29 34 47 58 38 26 21 20 22 22 19 17 13 8 6 5 3 3 5 18 17 14 43 98 96 96 95 96 97 96 96 95
32 43 55 42 27 23 20 21 22 21 19 17 13 8 6 5 4 3 4 15 16 15 62 96 96 95 96 96 96 96 96 96
40 51 43 28 23 21 21 22 23 21 19 17 13 9 7 6 4 3 3 10 16 17 76 95 96 95 96 96 97 97 98 99
45 44 30 23 22 20 22 22 23 21 20 18 15 10 8 7 5 3 3 6 16 17 82 96 96 96 96 96 97 98 99 98
37 32 24 20 21 22 22 23 22 22 20 19 16 11 9 8 6 3 2 4 15 17 82 95 94 96 97 100 97 97 98 99
29 23 18 20 20 23 22 23 22 22 21 20 18 13 10 9 8 4 2 3 11 17 68 96 96 96 96 98 99 98 98 99
20 17 18 20 21 24 22 23 23 22 22 21 19 16 12 10 9 5 2 2 6 15 43 95 96 96 97 99 98 97 98 100

GFSFLT1_700_rhum_315.txt.gz
RH
50 60 60 68 36 35 39 45 49 51 28 21 18 17 19 16 15 13 10 7 6 4 3 4 6 7 9 10 11 12 12 10
49 43 42 33 33 37 43 46 50 57 40 23 17 19 19 15 13 11 8 6 4 3 5 7 9 10 12 16 19 20 23 28
52 36 23 32 35 39 44 46 51 60 43 22 17 20 16 14 12 8 6 4 3 4 7 10 11 12 18 26 31 37 45 54
55 23 24 33 35 39 42 46 52 61 36 20 19 19 15 13 9 7 4 3 4 7 12 12 11 14 24 38 52 67 72 77
58 23 26 32 35 38 40 45 53 60 27 18 21 17 14 11 8 5 3 4 7 13 13 11 11 25 45 61 82 88 89 84
57 28 27 32 34 36 39 47 59 48 21 19 20 16 13 9 6 4 3 6 12 15 12 10 18 43 61 85 94 94 94 94
60 26 28 32 35 36 40 51 62 29 18 21 17 15 11 7 5 4 3 8 13 14 11 11 31 57 81 92 90 94 95 93
40 25 31 32 34 37 46 60 44 21 20 20 16 14 9 6 4 3 4 8 14 14 11 19 49 75 92 94 94 94 96 96
29 28 30 31 34 41 54 58 26 19 22 18 16 12 7 5 4 3 3 9 15 14 13 37 80 96 94 97 98 97 96 97
26 27 29 32 38 50 62 32 20 22 20 17 15 10 7 5 4 3 3 11 16 13 24 81 96 98 96 96 96 96 96 96
26 28 31 36 47 60 36 22 20 22 19 17 13 8 7 5 3 2 4 15 14 18 80 98 97 96 97 96 96 96 95 97
27 29 34 45 57 39 23 20 22 21 18 17 12 8 7 5 3 2 7 15 16 39 99 97 96 96 96 96 96 98 97 96
29 31 41 52 38 25 20 22 22 20 19 16 10 8 8 5 2 2 9 15 20 84 96 97 96 95 100 98 97 96 95 97
30 38 47 37 25 22 21 22 21 20 18 15 11 9 8 4 2 3 11 16 37 97 96 95 95 96 96 95 96 96 96 97
35 43 36 23 22 21 22 22 21 20 19 15 11 10 8 4 2 3 12 19 63 96 96 95 97 96 96 96 99 98 98 99
38 35 22 21 21 22 22 22 22 20 19 16 12 10 8 4 2 4 13 23 76 96 96 96 96 99 95 99 99 99 100 100
33 23 19 21 21 22 22 22 22 21 20 16 13 11 8 4 2 3 12 32 94 97 96 95 96 98 98 88 96 100 100 89
24 16 20 20 23 22 22 23 22 22 20 18 14 12 9 4 2 3 11 34 96 96 96 96 96 98 100 98 98 98 52 84
15 15 20 20 23 22 21 22 23 22 22 19 16 13 10 5 2 2 9 34 94 96 96 97 98 98 100 100 98 98 100 90